D1965 Weather Reports


time (UTC)temp
F
wind
direction
speed
knots
gust
knots
rain 1hr
in
rain 24hr
in
rain mn
in
humidity
%
barometer
mb
20260508100505 60 292 0.0 1.7 0.00 0.00 0.00 68 1014.6
20260508100005 59 0 0.0 0.0 0.00 0.00 0.00 70 1014.7
20260508095505 58 0 0.0 0.0 0.00 0.00 0.00 74 1014.7
20260508095004 58 0 0.0 0.0 0.00 0.00 0.00 73 1014.8
20260508094506 57 57 0.0 1.7 0.00 0.00 0.00 73 1014.8
20260508093505 57 45 0.9 3.5 0.00 0.00 0.00 73 1014.8
20260508093005 56 37 0.9 3.5 0.00 0.00 0.00 73 1014.7
20260508092506 56 22 0.0 0.9 0.00 0.00 0.00 74 1014.7
20260508092004 56 359 0.0 2.6 0.00 0.00 0.00 75 1014.7
20260508091505 56 359 0.0 2.6 0.00 0.00 0.00 74 1014.8
20260508091005 55 0 0.0 0.0 0.00 0.00 0.00 75 1014.8
20260508090006 55 0 0.0 0.0 0.00 0.00 0.00 75 1014.6
20260508085505 55 0 0.0 0.0 0.00 0.00 0.00 76 1014.7
20260508085004 55 28 0.0 0.9 0.00 0.00 0.00 75 1014.7
20260508084505 55 28 0.0 0.9 0.00 0.00 0.00 73 1014.7
20260508084005 55 24 0.9 2.6 0.00 0.00 0.00 74 1014.7
20260508083505 56 22 0.9 2.6 0.00 0.00 0.00 73 1014.8
20260508083005 56 19 0.0 2.6 0.00 0.00 0.00 73 1014.7
20260508082506 56 37 0.0 1.7 0.00 0.00 0.00 74 1014.7
20260508082005 56 37 0.0 1.7 0.00 0.00 0.00 74 1014.5
20260508081505 56 37 0.0 1.7 0.00 0.00 0.00 72 1014.6
20260508081005 56 36 0.0 1.7 0.00 0.00 0.00 74 1014.5
20260508080505 55 0 0.0 0.0 0.00 0.00 0.00 73 1014.7
20260508080004 55 0 0.0 0.0 0.00 0.00 0.00 75 1014.6
20260508075506 55 0 0.0 0.0 0.00 0.00 0.00 74 1014.6
20260508075005 55 0 0.0 0.0 0.00 0.00 0.00 75 1014.5
20260508074004 54 0 0.0 0.0 0.00 0.00 0.00 75 1014.3
20260508073505 54 0 0.0 0.0 0.00 0.00 0.00 75 1014.2
20260508073005 54 0 0.0 0.0 0.00 0.00 0.00 75 1014.2
20260508072505 54 0 0.0 0.0 0.00 0.00 0.00 77 1014.2
20260508072005 54 0 0.0 0.0 0.00 0.00 0.00 77 1014.2
20260508071505 53 0 0.0 0.0 0.00 0.00 0.00 77 1014.2
20260508071004 53 0 0.0 0.0 0.00 0.00 0.00 80 1014.1
20260508070005 51 0 0.0 0.0 0.00 0.00 0.00 82 1014.0
20260508065504 50 0 0.0 0.0 0.00 0.00 0.00 83 1014.0
20260508065004 50 0 0.0 0.0 0.00 0.00 0.00 86 1014.1
20260508064506 49 0 0.0 0.0 0.00 0.00 0.00 88 1014.0
20260508064004 48 0 0.0 0.0 0.00 0.00 0.00 90 1014.0
20260508063505 47 0 0.0 0.0 0.00 0.00 0.00 92 1013.9
20260508063004 46 0 0.0 0.0 0.00 0.00 0.00 92 1013.9
20260508062505 45 0 0.0 0.0 0.00 0.00 0.00 91 1014.0
20260508062004 45 0 0.0 0.0 0.00 0.00 0.00 91 1013.9
20260508061505 44 0 0.0 0.0 0.00 0.00 0.00 91 1013.9
20260508061004 44 0 0.0 0.0 0.00 0.00 0.00 92 1013.8
20260508060505 43 0 0.0 0.0 0.00 0.00 0.00 93 1013.8
20260508060005 42 0 0.0 0.0 0.00 0.00 0.00 93 1013.8
20260508055505 42 0 0.0 0.0 0.00 0.00 0.00 93 1013.8
20260508054505 41 0 0.0 0.0 0.00 0.00 0.00 92 1013.6
20260508054004 41 0 0.0 0.0 0.00 0.00 0.00 92 1013.5
20260508053505 41 0 0.0 0.0 0.00 0.00 0.00 92 1013.4
20260508053005 41 0 0.0 0.0 0.00 0.00 0.00 93 1013.4
20260508052005 40 0 0.0 0.0 0.00 0.00 0.00 92 1013.4
20260508051505 40 0 0.0 0.0 0.00 0.00 0.00 91 1013.4
20260508051004 40 0 0.0 0.0 0.00 0.00 0.00 90 1013.3
20260508050505 40 0 0.0 0.0 0.00 0.00 0.00 90 1013.4
20260508045505 40 0 0.0 0.0 0.00 0.00 0.00 91 1013.4
20260508045004 40 0 0.0 0.0 0.00 0.00 0.00 91 1013.5
20260508044505 40 0 0.0 0.0 0.00 0.00 0.00 91 1013.3
20260508044004 40 0 0.0 0.0 0.00 0.00 0.00 91 1013.4
20260508042505 41 0 0.0 0.0 0.00 0.00 0.00 91 1013.4
20260508042004 41 0 0.0 0.0 0.00 0.00 0.00 91 1013.2
20260508041505 41 0 0.0 0.0 0.00 0.00 0.00 91 1013.1
20260508040505 41 0 0.0 0.0 0.00 0.00 0.00 90 1013.0
20260508040004 41 0 0.0 0.0 0.00 0.00 0.00 90 1013.0
20260508035505 41 0 0.0 0.0 0.00 0.00 0.00 90 1013.1
20260508035005 41 0 0.0 0.0 0.00 0.00 0.00 90 1013.0
20260508034505 42 0 0.0 0.0 0.00 0.00 0.00 90 1013.1
20260508034004 42 0 0.0 0.0 0.00 0.00 0.00 90 1013.1
20260508033504 42 0 0.0 0.0 0.00 0.00 0.00 90 1013.0
20260508033004 42 0 0.0 0.0 0.00 0.00 0.00 90 1013.1
20260508032504 42 0 0.0 0.0 0.00 0.00 0.00 91 1013.0
20260508032004 42 0 0.0 0.0 0.00 0.00 0.00 90 1013.0
20260508031506 42 0 0.0 0.0 0.00 0.00 0.00 90 1013.0
20260508030004 42 0 0.0 0.0 0.00 0.00 0.00 88 1013.0
20260508025504 43 0 0.0 0.0 0.00 0.00 0.00 87 1013.0
20260508025004 43 0 0.0 0.0 0.00 0.00 0.00 86 1013.0
20260508024505 44 0 0.0 0.0 0.00 0.00 0.00 87 1013.1
20260508024004 44 0 0.0 0.0 0.00 0.00 0.00 88 1013.1
20260508023506 44 0 0.0 0.0 0.00 0.00 0.00 87 1013.1
20260508022505 45 0 0.0 0.0 0.00 0.00 0.00 87 1013.1
20260508022004 45 0 0.0 0.0 0.00 0.00 0.00 86 1013.1
20260508021504 45 0 0.0 0.0 0.00 0.00 0.00 86 1013.0
20260508020505 46 0 0.0 0.0 0.00 0.00 0.00 87 1013.1
20260508020004 46 0 0.0 0.0 0.00 0.00 0.00 87 1013.1
20260508015505 46 0 0.0 0.0 0.00 0.00 0.00 87 1013.2
20260508014505 47 0 0.0 0.0 0.00 0.00 0.00 84 1013.2
20260508014004 47 0 0.0 0.0 0.00 0.00 0.00 85 1013.1
20260508013505 47 0 0.0 0.0 0.00 0.00 0.00 85 1013.1
20260508013005 47 0 0.0 0.0 0.00 0.00 0.00 85 1013.2
20260508012004 48 0 0.0 0.0 0.00 0.00 0.00 85 1013.1
20260508011506 48 0 0.0 0.0 0.00 0.00 0.00 85 1013.0
20260508010505 48 0 0.0 0.0 0.00 0.00 0.00 84 1013.2
20260508010005 48 0 0.0 0.0 0.00 0.00 0.00 84 1013.2
20260508005505 48 0 0.0 0.0 0.00 0.00 0.00 84 1013.2
20260508005004 48 0 0.0 0.0 0.00 0.00 0.00 84 1013.2
20260508004505 48 0 0.0 0.0 0.00 0.00 0.00 84 1013.2
20260508004004 48 0 0.0 0.0 0.00 0.00 0.00 84 1013.2
20260508003505 48 0 0.0 0.0 0.00 0.00 0.00 84 1013.1
20260508003005 48 0 0.0 0.0 0.00 0.00 0.00 83 1013.2
20260508001505 49 0 0.0 0.0 0.00 0.00 0.00 83 1013.2
20260508000506 49 0 0.0 0.0 0.00 0.00 0.00 82 1013.1
20260508000004 49 0 0.0 0.0 0.00 0.00 0.00 82 1013.2
20260507235504 49 0 0.0 0.0 0.00 0.00 0.00 82 1013.2
20260507235004 49 0 0.0 0.0 0.00 0.00 0.00 82 1013.2
20260507234505 49 218 0.0 2.6 0.00 0.00 0.00 82 1013.2
20260507234003 49 218 0.0 2.6 0.00 0.00 0.00 82 1013.3
20260507233506 49 218 0.0 1.7 0.00 0.00 0.00 82 1013.2
20260507233004 49 215 0.0 2.6 0.00 0.00 0.00 82 1013.2
20260507232505 49 213 0.9 2.6 0.00 0.00 0.00 82 1013.2
20260507232003 49 212 0.9 2.6 0.00 0.00 0.00 82 1013.2
20260507231505 49 210 0.0 1.7 0.00 0.00 0.00 82 1013.3
20260507231004 49 0 0.0 0.0 0.00 0.00 0.00 82 1013.2
20260507230505 49 0 0.0 0.0 0.00 0.00 0.00 82 1013.3
20260507230004 49 0 0.0 0.0 0.00 0.00 0.00 82 1013.3
20260507225507 49 0 0.0 0.0 0.00 0.00 0.00 82 1013.3
20260507225004 49 0 0.0 0.0 0.00 0.00 0.00 82 1013.3
20260507224505 49 0 0.0 0.0 0.00 0.00 0.00 82 1013.2
20260507223504 49 0 0.0 0.0 0.00 0.00 0.00 81 1013.1
20260507223003 49 0 0.0 0.0 0.00 0.00 0.00 81 1013.1
20260507222504 49 0 0.0 0.0 0.00 0.00 0.00 81 1013.0
20260507222006 49 0 0.0 0.0 0.00 0.00 0.00 81 1013.1
20260507221504 49 0 0.0 0.0 0.00 0.00 0.00 81 1013.0
20260507221005 49 0 0.0 0.0 0.00 0.00 0.00 81 1013.1
20260507220503 49 0 0.0 0.0 0.00 0.00 0.00 81 1013.0
20260507220005 49 0 0.0 0.0 0.00 0.00 0.00 81 1013.0
20260507215504 49 0 0.0 0.0 0.00 0.00 0.00 81 1013.1
20260507215006 49 0 0.0 0.0 0.00 0.00 0.00 81 1013.1
20260507214505 49 0 0.0 0.0 0.00 0.00 0.00 82 1013.1
20260507214006 49 0 0.0 0.0 0.00 0.00 0.00 82 1013.1
20260507213505 49 0 0.0 0.0 0.00 0.00 0.00 82 1013.0
20260507212505 49 197 0.0 1.7 0.00 0.00 0.00 82 1012.9
20260507211506 50 204 0.0 0.9 0.00 0.00 0.00 81 1012.9
20260507211006 50 204 0.0 0.9 0.00 0.00 0.00 81 1012.9
20260507210505 50 205 0.0 0.9 0.00 0.00 0.00 81 1012.9
20260507210007 50 0 0.0 0.0 0.00 0.00 0.00 80 1012.7
20260507205505 50 0 0.0 0.0 0.00 0.00 0.00 80 1012.8
20260507205006 50 0 0.0 0.0 0.00 0.00 0.00 79 1012.7
20260507204505 51 0 0.0 0.0 0.00 0.00 0.00 79 1012.6
20260507204006 51 215 0.0 0.9 0.00 0.00 0.00 79 1012.5
20260507203506 51 215 0.9 3.5 0.00 0.00 0.00 79 1012.5
20260507203006 51 214 0.9 3.5 0.00 0.00 0.00 79 1012.5
20260507202506 51 215 0.9 4.3 0.00 0.00 0.00 78 1012.4
20260507202006 51 219 1.7 4.3 0.00 0.00 0.00 78 1012.4
20260507201505 51 225 1.7 4.3 0.00 0.00 0.00 78 1012.3
20260507200505 51 229 1.7 5.2 0.00 0.00 0.00 77 1012.2
20260507200007 51 220 1.7 4.3 0.00 0.00 0.00 77 1012.1
20260507195505 51 227 2.6 5.2 0.00 0.00 0.00 77 1012.0
20260507195006 51 227 2.6 7.0 0.00 0.00 0.00 76 1012.0
20260507194506 51 230 2.6 7.0 0.00 0.00 0.00 76 1011.9
20260507194006 52 239 3.5 8.7 0.00 0.00 0.00 75 1011.9
20260507193506 52 238 2.6 8.7 0.00 0.00 0.00 75 1011.9
20260507193006 52 233 2.6 6.1 0.00 0.00 0.00 75 1011.9
20260507192505 52 234 2.6 9.6 0.00 0.00 0.00 75 1011.9
20260507192005 52 234 2.6 9.6 0.00 0.00 0.00 74 1011.9
20260507191505 52 234 2.6 7.0 0.00 0.00 0.00 74 1011.8
20260507191006 52 232 2.6 7.0 0.00 0.00 0.00 74 1011.8
20260507190505 52 229 1.7 7.0 0.00 0.00 0.00 74 1011.7
20260507190006 52 231 1.7 7.8 0.00 0.00 0.00 73 1011.6
20260507185006 53 223 1.7 6.1 0.00 0.00 0.00 73 1011.6
20260507184505 53 207 1.7 5.2 0.00 0.00 0.00 73 1011.6
20260507184008 53 207 1.7 5.2 0.00 0.00 0.00 72 1011.6
20260507183007 53 214 1.7 7.0 0.00 0.00 0.00 72 1011.5
20260507182505 53 220 2.6 7.8 0.00 0.00 0.00 71 1011.5
20260507182006 53 221 2.6 7.8 0.00 0.00 0.00 71 1011.6
20260507181505 53 223 2.6 8.7 0.00 0.00 0.00 70 1011.5
20260507181007 53 223 2.6 8.7 0.00 0.00 0.00 70 1011.4
20260507180006 53 225 2.6 7.8 0.00 0.00 0.00 71 1011.5
20260507175505 53 234 2.6 7.8 0.00 0.00 0.00 70 1011.4
20260507175007 53 236 2.6 7.8 0.00 0.00 0.00 70 1011.4
20260507174505 53 232 2.6 7.8 0.00 0.00 0.00 70 1011.5
20260507174006 54 232 2.6 10.4 0.00 0.00 0.00 70 1011.5
20260507173505 54 231 2.6 10.4 0.00 0.00 0.00 69 1011.5
20260507173007 54 231 2.6 7.8 0.00 0.00 0.00 70 1011.5
20260507172007 54 236 3.5 8.7 0.00 0.00 0.00 69 1011.4
20260507171505 54 234 1.7 6.1 0.00 0.00 0.00 69 1011.4
20260507171006 54 228 1.7 6.1 0.00 0.00 0.00 69 1011.5
20260507170006 54 228 2.6 9.6 0.00 0.00 0.00 69 1011.5
20260507165504 54 236 3.5 9.6 0.00 0.00 0.00 69 1011.5
20260507165005 54 238 3.5 9.6 0.00 0.00 0.00 68 1011.5
20260507164505 54 231 2.6 6.1 0.00 0.00 0.00 69 1011.5
20260507164007 55 233 2.6 7.0 0.00 0.00 0.00 69 1011.5
20260507163505 55 233 3.5 9.6 0.00 0.00 0.00 68 1011.4
20260507163007 55 237 3.5 9.6 0.00 0.00 0.00 67 1011.3
20260507162505 55 236 3.5 7.8 0.00 0.00 0.00 66 1011.3
20260507162007 56 234 4.3 8.7 0.00 0.00 0.00 64 1011.3
20260507161505 56 235 3.5 8.7 0.00 0.00 0.00 63 1011.2
20260507161006 57 236 3.5 7.8 0.00 0.00 0.00 62 1011.2
20260507160505 57 252 3.5 7.0 0.00 0.00 0.00 59 1011.2
20260507160005 57 269 3.5 7.0 0.00 0.00 0.00 59 1011.1
20260507155504 57 270 3.5 7.8 0.00 0.00 0.00 58 1011.2
20260507155007 57 269 3.5 7.8 0.00 0.00 0.00 57 1011.1
20260507154505 57 260 3.5 7.8 0.00 0.00 0.00 58 1011.2
20260507154006 57 254 2.6 6.1 0.00 0.00 0.00 58 1011.1
20260507153505 57 264 3.5 7.8 0.00 0.00 0.00 59 1011.1
20260507153006 57 264 3.5 7.8 0.00 0.00 0.00 58 1011.2
20260507152505 57 251 2.6 7.0 0.00 0.00 0.00 58 1011.2
20260507152006 57 243 3.5 7.8 0.00 0.00 0.00 58 1011.2
20260507151505 58 254 3.5 7.8 0.00 0.00 0.00 56 1011.2
20260507151006 58 253 3.5 7.8 0.00 0.00 0.00 57 1011.1
20260507150505 58 245 3.5 7.8 0.00 0.00 0.00 57 1011.1
20260507145504 58 235 2.6 7.8 0.00 0.00 0.00 54 1011.1
20260507144505 58 245 3.5 7.0 0.00 0.00 0.00 56 1011.1
20260507143505 58 235 3.5 8.7 0.00 0.00 0.00 55 1011.2
20260507143005 59 243 3.5 7.8 0.00 0.00 0.00 53 1011.2
20260507142006 58 261 2.6 7.0 0.00 0.00 0.00 56 1011.2
20260507141505 58 259 2.6 6.1 0.00 0.00 0.00 57 1011.2
20260507141007 58 254 2.6 7.0 0.00 0.00 0.00 57 1011.3
20260507140505 58 256 2.6 7.0 0.00 0.00 0.00 56 1011.3
20260507140007 58 257 2.6 7.0 0.00 0.00 0.00 55 1011.4
20260507135505 58 263 3.5 9.6 0.00 0.00 0.00 55 1011.4
20260507135005 58 266 3.5 9.6 0.00 0.00 0.00 56 1011.4
20260507134505 58 246 2.6 7.8 0.00 0.00 0.00 55 1011.4
20260507134007 58 216 1.7 6.1 0.00 0.00 0.00 55 1011.4
20260507133505 58 227 2.6 7.8 0.00 0.00 0.00 52 1011.4
20260507132504 58 239 2.6 7.0 0.00 0.00 0.00 54 1011.6
20260507132006 58 245 1.7 6.1 0.00 0.00 0.00 54 1011.5
20260507131505 59 235 2.6 7.0 0.00 0.00 0.00 56 1011.4
20260507131007 59 232 2.6 7.0 0.00 0.00 0.00 54 1011.5
20260507130505 58 235 3.5 7.0 0.00 0.00 0.00 59 1011.5
20260507130006 57 239 4.3 11.3 0.00 0.00 0.00 56 1011.6
20260507125505 58 237 3.5 11.3 0.00 0.00 0.00 55 1011.6
20260507124505 57 228 3.5 9.6 0.00 0.00 0.00 57 1011.7
20260507124006 57 243 4.3 9.6 0.00 0.00 0.00 58 1011.7
20260507123505 57 240 4.3 11.3 0.00 0.00 0.00 59 1011.7
20260507123005 58 231 4.3 11.3 0.00 0.00 0.00 58 1011.6
20260507122504 58 237 4.3 10.4 0.00 0.00 0.00 60 1011.8
20260507122005 57 237 3.5 10.4 0.00 0.00 0.00 60 1011.7
20260507121005 57 222 3.5 7.0 0.00 0.00 0.00 60 1011.7
20260507120505 57 220 3.5 7.0 0.00 0.00 0.00 61 1011.7
20260507120005 57 225 2.6 7.0 0.00 0.00 0.00 60 1011.7
20260507115504 57 237 3.5 9.6 0.00 0.00 0.00 61 1011.7
20260507115005 57 235 3.5 9.6 0.00 0.00 0.00 63 1011.8
20260507114505 57 236 3.5 7.8 0.00 0.00 0.00 61 1011.7
20260507114006 57 236 3.5 7.8 0.00 0.00 0.00 63 1011.9
20260507113505 56 229 3.5 7.8 0.00 0.00 0.00 63 1011.8
20260507113006 57 224 2.6 8.7 0.00 0.00 0.00 63 1011.8
20260507112505 57 225 2.6 8.7 0.00 0.00 0.00 66 1011.9
20260507111506 56 165 1.7 5.2 0.00 0.00 0.00 71 1011.9
20260507111005 55 149 1.7 6.1 0.00 0.00 0.00 73 1011.9
20260507105504 54 158 1.7 5.2 0.00 0.00 0.00 73 1011.9
20260507104505 53 144 1.7 5.2 0.00 0.00 0.00 77 1012.0
20260507104005 53 153 1.7 5.2 0.00 0.00 0.00 77 1012.0
20260507103505 53 142 1.7 5.2 0.00 0.00 0.00 76 1012.1
20260507102505 53 148 1.7 5.2 0.00 0.00 0.00 78 1012.1
20260507102007 53 139 1.7 6.1 0.00 0.00 0.00 78 1012.0
20260507101506 53 127 2.6 8.7 0.00 0.00 0.00 79 1012.1